Portada
METAR-TAF:

METAR-TAF

Aeroports :

Buffalo Municipal Airport

Buffalo, Minnesota, Estats Units d'Amèrica

latitud: 45-09-32N, longitud: 093-50-35W, altitud: 295 m

Observació

L'informe es va fer fa 15 minuts, a les 11:55 UTC
Vent 3 kt del Sud-Oest
Temperatura 4°C
Humitat 75%
Pressió 1014 hPa
Visibilitat: 16.1 km
Cel clar

METAR: KCFE 161155Z AUTO 23003KT 10SM CLR 04/00 A2995 RMK AO2 T00411005 10052 20040

Hora: 07:10 (12:10 UTC)


TAF: manca

Observacions i pronòstics meteorològics de més de 4000 aeroports (METAR i TAF).

Les estacions disponibles són els punts grocs i vermells al mapa.

Posi el ratolí al punt desitjat per veure el nom de l'estació.

Feu clic per veure les observacions i els pronòstics meteorològics.

Per canviar el mapa: feu clic els botons verds amb una creu de color negre per apropar; al botó verd amb un guió per allunyar la imatge; o en les fletxes verdes per a mapes adjacents.


METAR-TAF: